Regional Weather Roundup
Issued by NWS Midland/Odessa, TX

Skip options and go directly to product.
Home | Oldest Version | Previous Version | Current Version | All | Graphics & Text | Save Text | Print | Product List | Glossary On

Skip product version selection by date and time.   
988
ASUS44 KMAF 261710
RWRMAF
MIDLAND AREA WEATHER ROUNDUP
NATIONAL WEATHER SERVICE MIDLAND TX
1100 AM CST WED NOV 26 2014

...IN SOUTHWEST TEXAS AND SOUTHEAST NEW MEXICO...

CITY           SKY/WX    TMP DP  RH WIND       PRES   REMARKS
ALPINE         SUNNY     60  13  16 SW10      30.38S
ANDREWS        FAIR      54  22  28 N13G21    30.30R
ARTESIA        NOT AVBL
BIG SPRING     SUNNY     54  22  29 N9        30.30S
CARLSBAD       SUNNY     56  16  20 E7        30.28R
DRYDEN           N/A     64   9  11 SW20G25   30.27R
FORT STOCKTON  SUNNY     64  14  14 W9        30.29R
GUAD PASS      NOT AVBL
HOBBS          SUNNY     55  19  24 N18G24    30.29R
MARFA          SUNNY     57  16  19 W23       30.35F
MIDLAND AIRPK  SUNNY     56  22  26 N10       30.29R
MIDLAND INTL   SUNNY     58  20  22 N20       30.27R
ODESSA         SUNNY     59  17  19 N18       30.28R
PECOS          SUNNY     63  17  17 W10       30.28S
PRESIDIO       FAIR      53  15  22 CALM      30.37S
SEMINOLE       SUNNY     52  25  35 NE9G17    30.31R
SNYDER         SUNNY     50  30  46 N10       30.28R
WINK           SUNNY     61  11  14 NW7       30.27S
$$
...OTHER STATIONS IN TEXAS...

CITY           SKY/WX    TMP DP  RH WIND       PRES   REMARKS
ABILENE        SUNNY     53  29  39 N14       30.25R
AMARILLO       MOSUNNY   44  27  51 N12       30.30R WCI  38
AUSTIN         SUNNY     67  35  30 SW13G21   30.21S
BROWNSVILLE    SUNNY     69  44  40 S14       30.32F
CORPUS CHRISTI SUNNY     63  43  48 S17       30.29F
DALLAS FTW     MOSUNNY   56  28  34 NW13      30.16R
DEL RIO        SUNNY     59  38  45 CALM      30.27S
EL PASO        MOSUNNY   48  11  22 SW5       30.37S
HOUSTON INT    SUNNY     65  34  31 SW16G24   30.24F
LUBBOCK        MOSUNNY   49  29  46 N12       30.29R
SAN ANGELO     SUNNY     63  21  20 N13       30.24R
SAN ANTONIO    SUNNY     64  35  34 SW10      30.25F
WACO           SUNNY     63  27  25 W15       30.18R
WICHITA FALLS  NOT AVBL
$$
...OTHER LOCATIONS IN NEW MEXICO...

CITY           SKY/WX    TMP DP  RH WIND       PRES   REMARKS
ALAMAGORDO     MOSUNNY   43   9  24 S3        30.37S
ALBUQUERQUE    MOSUNNY   47  12  24 SW6       30.40R
CANNON AFB     SUNNY     43  28  55 E7        30.31R WCI  39
CLOVIS         SUNNY     43  27  52 NE14      30.30S WCI  36
HOLLOMAN AFB   MOSUNNY   45  12  26 S3        30.36S
ROSWELL        SUNNY     54  18  24 SE6       30.29R
RUIDOSO        SUNNY     48  19  32 NW10G17   30.38R
SANTA FE       SUNNY     45  20  36 VRB5      30.36R
TRUTH OR CONSE SUNNY     47  14  26 CALM      30.38R
TUCUMCARI      PTSUNNY   41  27  57 E7        30.31R WCI  36
$$

USA.gov is the U.S. government's official web portal to all federal, state and local government web resources and services.